Regional Weather Roundup
Issued by NWS

Home | Current Version | Previous Version | Text Only | Print | Product List | Glossary On
Versions: 1 2 3 4 5 6 7 8 9 10 11 12 13 14 15 16 17 18 19 20 21 22 23 24 25 26 27 28 29 30 31 32 33 34 35 36 37 38 39 40 41 42 43 44 45 46 47 48 49 50
000
ASUS43 KLMK 261502
RWRKY
KENTUCKY REGIONAL WEATHER ROUNDUP
NATIONAL WEATHER SERVICE LOUISVILLE KY
1000 AM EST MON JAN 26 2015

NOTE "FAIR" INDICATES FEW OR NO CLOUDS BELOW 12,000 FEET
WITH NO SIGNIFICANT WEATHER AND/OR OBSTRUCTIONS TO VISIBILITY.

KYZ001>023-026-027-061>063-070>075-261600-
WESTERN AND SOUTH CENTRAL KENTUCKY

CITY           SKY/WX    TMP DP  RH WIND       PRES   REMARKS
PADUCAH        MOSUNNY   31  23  72 NW12      30.05S WCI  22
HENDERSON      CLOUDY    30  25  80 NW9       30.02R WCI  22
OWENSBORO      CLOUDY    31  27  85 NW10      30.01R WCI  22
HOPKINSVILLE   NOT AVBL
BOWLING GREEN  CLOUDY    30  24  78 NW9       29.99R WCI  22
GLASGOW        NOT AVBL
$$

KYZ024-025-028>034-038-045-046-053-261600-
NORTH CENTRAL KENTUCKY

CITY           SKY/WX    TMP DP  RH WIND       PRES   REMARKS
LOUISVILLE/SDF CLOUDY    27  20  75 NW12      29.96R WCI  17
LOUISVILLE/LOU CLOUDY    26  19  74 NW9       29.96R WCI  17
FORT KNOX      NOT AVBL
$$

KYZ035>037-039>044-047>052-055>060-089>105-261600-
NORTHEAST KENTUCKY

CITY           SKY/WX    TMP DP  RH WIND       PRES   REMARKS
LEXINGTON      CLOUDY    23  20  88 NW13      29.89R WCI  11
COVINGTON      NOT AVBL
FRANKFORT      CLOUDY    24  18  77 NW8       29.91R WCI  15
$$

KYZ054-064>069-076>088-106>120-261600-
SOUTHEAST KENTUCKY

CITY           SKY/WX    TMP DP  RH WIND       PRES   REMARKS
JACKSON        LGT SNOW  26  23  88 NW10G17   29.80R VSB 3/4 WCI  16
LONDON         MIX PCPN  28  23  81 NW13      29.85R WCI  17
SOMERSET       NOT AVBL
MIDDLESBORO    CLOUDY    33  30  88 N6        29.82R WCI  28
MONTICELLO     MIX PCPN  28  26  92 NW12      29.93R WCI  18
$$



USA.gov is the U.S. government's official web portal to all federal, state and local government web resources and services.